Location: Asheville, NC
(35.6000°N, 82.5500°W)
Time: 20:56:21
(UTC-05:00)

OTV 5 (USA 277) - Pass Details

Date: 09 December 2017
Orbit: 404 x 417 km, 43.0° (Epoch: 07 September)

Event Time Altitude Azimuth Distance (km) Brightness Sun altitude
Rises 18:20:48 0° 292° (WNW) 2,350 ? -12.7°
Reaches altitude 10° 18:23:13 10° 308° (NW) 1,488 ? -13.2°
Maximum altitude 18:25:56 22° 2° (N) 957 ? -13.7°
Enters shadow 18:26:59 19° 30° (NNE) 1,053 ? -13.9°
